Weather History for Granite Falls, MN

Change the Weather History Date:

Thursday, November 22, 2012

  Actual Average (KMVE) Record (KMVE)
Temperature  
Mean Temperature 39 °F -  
Max Temperature 55 °F 36 °F 61 °F (1974)
Min Temperature 23 °F 19 °F -2 °F (1996)
Degree Days  
Heating Degree Days 26    
Moisture  
Dew Point 31 °F    
Average Humidity 71    
Maximum Humidity 96    
Minimum Humidity 49    
Precipitation  
Precipitation 0.00 in - - ()
Sea Level Pressure  
Sea Level Pressure 29.83 in    
Wind  
Wind Speed 15 mph (West)    
Max Wind Speed 32 mph    
Max Gust Speed 39 mph    
Visibility 10 miles    
Events Snow    
Averages and records for this station are not official NWS values.
T = Trace of Precipitation, MM = Missing Value Source: NWS Daily Summary

Daily Weather History Graph

Daily Weather History Graph

Search for Another Location

Airport:

Trip Planner

Search our weather history database for the weather conditions in past years. The results will help you decide how hot, cold, wet, or windy it might be!

Date:

Astronomy

Nov. 22, 2012 Rise Set
Actual Time 7:29 AM CST 4:47 PM CST
Civil Twilight 6:56 AM CST 5:19 PM CST
Nautical Twilight 6:20 AM CST 5:55 PM CST
Astronomical Twilight 5:46 AM CST 6:30 PM CST
Moon 1:45 PM CST (11/22) 1:37 AM CST (11/22)
Length of Visible Light 10h 23m
Length of Day
9h 18m
Waxing Gibbous, 71% of the Moon is Illuminated
Nov 22
Waxing Gibbous
Nov 28
Full
Dec 6
Last Quarter
Dec 13
New
Dec 19
First Quarter

Hourly Weather History & Observations

Time (CST) Temp. Windchill Dew Point Humidity Pressure Visibility Wind Dir Wind Speed Gust Speed Precip Events Conditions
12:11 AM 53.6 °F - 39.2 °F 58% 29.61 in 10.0 mi South 13.8 mph - N/A   Clear
12:31 AM 53.1 °F - 38.7 °F 58% 29.61 in 10.0 mi SSW 9.2 mph - N/A   Clear
12:51 AM 55.9 °F - 37.2 °F 49% 29.61 in 10.0 mi South 12.7 mph 24.2 mph N/A   Clear
1:11 AM 54.9 °F - 37.4 °F 52% 29.60 in 10.0 mi South 11.5 mph 16.1 mph N/A   Clear
1:31 AM 54.1 °F - 37.4 °F 53% 29.61 in 10.0 mi SSW 5.8 mph 17.3 mph N/A   Clear
1:51 AM 52.3 °F - 37.4 °F 57% 29.60 in 10.0 mi Calm Calm - N/A   Clear
2:11 AM 52.7 °F - 36.7 °F 55% 29.59 in 10.0 mi SSW 8.1 mph - N/A   Clear
2:31 AM 52.3 °F - 36.7 °F 55% 29.60 in 10.0 mi SSW 11.5 mph - N/A   Clear
2:51 AM 52.9 °F - 36.3 °F 53% 29.60 in 10.0 mi SSW 11.5 mph 18.4 mph N/A   Clear
3:10 AM 52.3 °F - 36.0 °F 54% 29.60 in 10.0 mi SSW 10.4 mph 16.1 mph N/A   Clear
3:31 AM 50.7 °F - 36.0 °F 57% 29.60 in 10.0 mi SW 10.4 mph - N/A   Clear
3:51 AM 50.5 °F - 35.8 °F 57% 29.60 in 10.0 mi SW 13.8 mph - N/A   Clear
4:11 AM 49.3 °F - 35.6 °F 59% 29.59 in 10.0 mi SSW 13.8 mph - N/A   Clear
4:31 AM 48.6 °F - 35.6 °F 61% 29.59 in 10.0 mi Calm Calm - N/A   Clear
4:51 AM 48.2 °F - 34.7 °F 60% 29.60 in 10.0 mi Calm Calm - N/A   Clear
5:11 AM 47.3 °F - 34.0 °F 60% 29.62 in 10.0 mi Calm Calm - N/A   Clear
5:31 AM 45.5 °F - 33.3 °F 62% 29.63 in 10.0 mi Calm Calm - N/A   Clear
5:51 AM 44.6 °F - 32.4 °F 62% 29.64 in 10.0 mi Calm Calm - N/A   Clear
6:11 AM 43.3 °F - 32.0 °F 64% 29.64 in 10.0 mi Calm Calm - N/A   Clear
6:31 AM 42.3 °F - 31.6 °F 66% 29.65 in 10.0 mi Calm Calm - N/A   Clear
6:51 AM 43.7 °F - 32.0 °F 63% 29.65 in 10.0 mi Calm Calm - N/A   Clear
7:11 AM 41.9 °F - 32.0 °F 68% 29.65 in 10.0 mi Calm Calm - N/A   Clear
7:31 AM 40.6 °F 33.8 °F 32.2 °F 72% 29.66 in 7.0 mi West 11.5 mph 17.3 mph N/A   Clear
7:51 AM 42.3 °F 34.4 °F 33.3 °F 70% 29.67 in 10.0 mi WNW 16.1 mph 19.6 mph N/A   Clear
8:10 AM 42.4 °F 34.1 °F 34.3 °F 73% 29.69 in 10.0 mi WNW 18.4 mph 26.5 mph N/A   Clear
8:31 AM 43.2 °F 35.0 °F 35.2 °F 74% 29.70 in 10.0 mi WNW 18.4 mph 27.6 mph N/A   Clear
8:51 AM 41.9 °F 34.0 °F 35.1 °F 77% 29.72 in 10.0 mi WNW 16.1 mph 25.3 mph N/A   Clear
9:10 AM 41.9 °F 32.6 °F 35.1 °F 77% 29.73 in 7.0 mi WNW 21.9 mph 32.2 mph N/A   Scattered Clouds
9:51 AM 39.2 °F 27.4 °F 33.1 °F 79% 29.76 in 10.0 mi WNW 29.9 mph 35.7 mph N/A   Overcast
10:10 AM 38.8 °F 27.3 °F 32.7 °F 79% 29.77 in 10.0 mi WNW 27.6 mph 34.5 mph N/A   Overcast
10:31 AM 38.3 °F 27.1 °F 32.4 °F 79% 29.80 in 10.0 mi WNW 25.3 mph 36.8 mph N/A   Overcast
10:51 AM 38.3 °F 27.3 °F 32.0 °F 78% 29.80 in 10.0 mi NW 24.2 mph 32.2 mph N/A   Overcast
11:11 AM 38.5 °F 27.3 °F 32.0 °F 78% 29.80 in 10.0 mi WNW 25.3 mph 33.4 mph N/A   Overcast
11:51 AM 39.4 °F 29.0 °F 32.0 °F 75% 29.83 in 10.0 mi WNW 23.0 mph 31.1 mph N/A   Overcast
12:11 PM 39.2 °F 28.0 °F 32.0 °F 75% 29.84 in 10.0 mi WNW 26.5 mph 36.8 mph N/A   Overcast
12:31 PM 40.1 °F 28.8 °F 31.3 °F 71% 29.85 in 10.0 mi WNW 28.8 mph 38.0 mph N/A   Overcast
12:51 PM 39.2 °F 27.8 °F 30.6 °F 71% 29.87 in 10.0 mi WNW 27.6 mph 36.8 mph N/A   Overcast
1:11 PM 38.3 °F 26.6 °F 31.3 °F 76% 29.85 in 10.0 mi WNW 27.6 mph 35.7 mph N/A   Drizzle
1:31 PM 34.5 °F 23.8 °F 31.8 °F 90% 29.89 in 5.0 mi WNW 18.4 mph 34.5 mph N/A   Drizzle
1:51 PM 32.9 °F 21.0 °F 31.3 °F 94% 29.89 in 2.0 mi WNW 20.7 mph 25.3 mph N/A Snow Light Snow
2:11 PM 33.1 °F 22.2 °F 32.0 °F 96% 29.90 in 4.0 mi WNW 17.3 mph 24.2 mph N/A Snow Light Snow
2:31 PM 34.7 °F 23.4 °F 32.9 °F 93% 29.91 in 10.0 mi WNW 20.7 mph - N/A   Overcast
2:51 PM 34.9 °F 23.6 °F 32.0 °F 89% 29.92 in 10.0 mi WNW 20.7 mph 28.8 mph N/A   Overcast
3:11 PM 35.2 °F 25.0 °F 32.0 °F 88% 29.93 in 10.0 mi WNW 17.3 mph 25.3 mph N/A   Overcast
3:31 PM 35.6 °F 25.2 °F 32.4 °F 88% 29.94 in 10.0 mi WNW 18.4 mph 24.2 mph N/A   Overcast
3:51 PM 36.1 °F 25.9 °F 32.0 °F 85% 29.95 in 10.0 mi West 18.4 mph - N/A   Overcast
4:11 PM 36.9 °F 25.9 °F 32.0 °F 83% 29.96 in 10.0 mi WNW 21.9 mph 29.9 mph N/A   Overcast
4:31 PM 36.7 °F 25.1 °F 31.6 °F 82% 29.97 in 10.0 mi WNW 24.2 mph 33.4 mph N/A   Overcast
4:51 PM 36.5 °F 25.7 °F 30.0 °F 77% 29.99 in 10.0 mi WNW 20.7 mph 29.9 mph N/A   Overcast
5:11 PM 35.8 °F 23.4 °F 29.1 °F 77% 30.00 in 10.0 mi WNW 26.5 mph 33.4 mph N/A   Overcast
5:31 PM 35.6 °F 22.7 °F 28.0 °F 74% 30.02 in 10.0 mi WNW 28.8 mph 35.7 mph N/A   Overcast
5:51 PM 34.7 °F 22.2 °F 27.7 °F 76% 30.02 in 10.0 mi WNW 25.3 mph 32.2 mph N/A   Overcast
6:11 PM 34.2 °F 22.1 °F 27.7 °F 77% 30.03 in 10.0 mi WNW 23.0 mph 31.1 mph N/A   Overcast
6:31 PM 33.4 °F 20.1 °F 27.3 °F 78% 30.04 in 10.0 mi WNW 27.6 mph 36.8 mph N/A   Overcast
6:51 PM 32.9 °F 20.4 °F 27.3 °F 80% 30.05 in 10.0 mi WNW 23.0 mph 36.8 mph N/A   Overcast
7:51 PM 30.9 °F 17.2 °F 23.0 °F 72% 30.07 in 10.0 mi WNW 25.3 mph 38.0 mph N/A   Overcast
8:11 PM 30.6 °F 16.2 °F 22.8 °F 73% 30.08 in 10.0 mi WNW 27.6 mph 36.8 mph N/A   Overcast
8:31 PM 30.2 °F 15.9 °F 22.6 °F 73% 30.08 in 10.0 mi WNW 26.5 mph 33.4 mph N/A   Overcast
8:51 PM 30.2 °F 16.8 °F 22.6 °F 73% 30.09 in 10.0 mi WNW 23.0 mph 34.5 mph N/A   Overcast
9:11 PM 29.5 °F 14.7 °F 21.7 °F 73% 30.09 in 10.0 mi WNW 27.6 mph 38.0 mph N/A   Overcast
9:31 PM 28.4 °F 12.7 °F 19.9 °F 71% 30.11 in 10.0 mi WNW 29.9 mph 39.1 mph N/A   Overcast
9:51 PM 27.9 °F 12.0 °F 19.2 °F 70% 30.11 in 10.0 mi WNW 29.9 mph 39.1 mph N/A   Overcast
10:11 PM 27.0 °F 12.2 °F 19.8 °F 74% 30.13 in 10.0 mi WNW 24.2 mph 39.1 mph N/A   Overcast
10:31 PM 25.7 °F 10.2 °F 17.4 °F 71% 30.13 in 10.0 mi NW 25.3 mph 34.5 mph N/A   Overcast
10:50 PM 25.3 °F 9.7 °F 17.8 °F 73% 30.14 in 10.0 mi WNW 25.3 mph 33.4 mph N/A   Overcast
11:11 PM 24.6 °F 7.1 °F 16.7 °F 72% 30.15 in 10.0 mi NW 32.2 mph 39.1 mph N/A   Overcast
11:31 PM 23.7 °F 6.9 °F 16.9 °F 75% 30.16 in 10.0 mi WNW 27.6 mph 38.0 mph N/A   Overcast
11:51 PM 23.4 °F 6.5 °F 16.3 °F 75% 30.17 in 10.0 mi WNW 27.6 mph 35.7 mph N/A   Overcast